TimeEST,TemperatureF,Dew PointF,Humidity,Sea Level PressureIn,VisibilityMPH,Wind Direction,Wind SpeedMPH,Gust SpeedMPH,PrecipitationIn,Events,Conditions,WindDirDegrees,DateUTC
12:15 AM,37.4,15.8,41,30.01,10.0,North,6.9,-,N/A,,Overcast,350,2013-01-18 05:15:00
12:35 AM,37.4,15.8,41,30.02,10.0,North,4.6,-,N/A,,Overcast,350,2013-01-18 05:35:00
12:55 AM,37.4,15.8,41,30.02,10.0,NNW,4.6,-,N/A,,Overcast,330,2013-01-18 05:55:00
1:15 AM,35.6,15.8,44,30.04,10.0,NNW,4.6,-,N/A,,Overcast,330,2013-01-18 06:15:00
1:35 AM,37.4,15.8,41,30.04,10.0,NNW,3.5,-,N/A,,Overcast,340,2013-01-18 06:35:00
1:55 AM,35.6,17.6,48,30.05,10.0,NNW,4.6,-,N/A,,Overcast,340,2013-01-18 06:55:00
2:15 AM,35.6,15.8,44,30.06,10.0,NW,4.6,-,N/A,,Overcast,310,2013-01-18 07:15:00
2:35 AM,35.6,15.8,44,30.07,10.0,NNW,4.6,-,N/A,,Overcast,330,2013-01-18 07:35:00
2:55 AM,35.6,15.8,44,30.06,10.0,NNW,6.9,-,N/A,,Overcast,330,2013-01-18 07:55:00
3:15 AM,35.6,15.8,44,30.06,10.0,North,5.8,-,N/A,,Overcast,350,2013-01-18 08:15:00
3:35 AM,35.6,14.0,41,30.07,10.0,North,8.1,-,N/A,,Overcast,360,2013-01-18 08:35:00
3:55 AM,35.6,12.2,38,30.07,10.0,North,8.1,-,N/A,,Overcast,360,2013-01-18 08:55:00
4:15 AM,35.6,14.0,41,30.09,10.0,North,13.8,-,N/A,,Overcast,10,2013-01-18 09:15:00
4:35 AM,33.8,12.2,41,30.11,9.0,NNW,12.7,17.3,N/A,,Overcast,340,2013-01-18 09:35:00
4:55 AM,32.0,12.2,44,30.12,10.0,North,6.9,-,N/A,,Overcast,360,2013-01-18 09:55:00
5:15 AM,32.0,10.4,41,30.13,10.0,North,5.8,-,N/A,,Overcast,10,2013-01-18 10:15:00
5:35 AM,32.0,10.4,41,30.15,10.0,North,6.9,-,N/A,,Overcast,360,2013-01-18 10:35:00
5:55 AM,30.2,8.6,40,30.17,10.0,North,8.1,-,N/A,,Overcast,360,2013-01-18 10:55:00
6:15 AM,30.2,8.6,40,30.18,10.0,North,12.7,-,N/A,,Overcast,10,2013-01-18 11:15:00
6:35 AM,30.2,8.6,40,30.21,10.0,NNW,16.1,19.6,N/A,,Overcast,340,2013-01-18 11:35:00
6:55 AM,30.2,6.8,37,30.22,10.0,North,13.8,19.6,N/A,,Overcast,350,2013-01-18 11:55:00
7:15 AM,30.2,6.8,37,30.24,10.0,NNW,18.4,23.0,N/A,,Overcast,340,2013-01-18 12:15:00
7:35 AM,30.2,6.8,37,30.26,10.0,North,10.4,-,N/A,,Overcast,350,2013-01-18 12:35:00
7:55 AM,30.2,6.8,37,30.28,10.0,NNW,18.4,25.3,N/A,,Mostly Cloudy,330,2013-01-18 12:55:00
8:15 AM,30.2,5.0,34,30.30,10.0,NNW,15.0,19.6,N/A,,Mostly Cloudy,330,2013-01-18 13:15:00
8:35 AM,30.2,1.4,29,30.32,10.0,NW,20.7,28.8,N/A,,Mostly Cloudy,310,2013-01-18 13:35:00
8:55 AM,30.2,-5.8,21,30.34,10.0,NW,20.7,27.6,N/A,,Clear,320,2013-01-18 13:55:00
9:15 AM,30.2,-11.2,16,30.37,10.0,NW,17.3,32.2,N/A,,Clear,310,2013-01-18 14:15:00
9:35 AM,30.2,-7.6,19,30.39,10.0,NW,15.0,26.5,N/A,,Clear,310,2013-01-18 14:35:00
9:55 AM,30.2,-11.2,16,30.41,10.0,NNW,17.3,31.1,N/A,,Partly Cloudy,330,2013-01-18 14:55:00
10:15 AM,30.2,-11.2,16,30.41,10.0,NNW,18.4,29.9,N/A,,Clear,330,2013-01-18 15:15:00
10:35 AM,30.2,-11.2,16,30.41,10.0,NNW,15.0,23.0,N/A,,Clear,330,2013-01-18 15:35:00
10:55 AM,30.2,-9.4,18,30.41,10.0,NNW,18.4,26.5,N/A,,Partly Cloudy,330,2013-01-18 15:55:00
11:15 AM,30.2,-7.6,19,30.41,10.0,NNW,17.3,21.9,N/A,,Partly Cloudy,330,2013-01-18 16:15:00
11:35 AM,30.2,-7.6,19,30.41,10.0,NW,13.8,21.9,N/A,,Clear,310,2013-01-18 16:35:00
11:55 AM,30.2,-7.6,19,30.42,10.0,NNW,17.3,23.0,N/A,,Scattered Clouds,330,2013-01-18 16:55:00
12:15 PM,30.2,-7.6,19,30.41,10.0,NW,13.8,24.2,N/A,,Partly Cloudy,310,2013-01-18 17:15:00
12:35 PM,30.2,-7.6,19,30.41,10.0,NNW,15.0,20.7,N/A,,Clear,340,2013-01-18 17:35:00
12:55 PM,30.2,-7.6,19,30.41,10.0,North,15.0,20.7,N/A,,Clear,350,2013-01-18 17:55:00
1:15 PM,30.2,-5.8,21,30.41,10.0,NW,11.5,16.1,N/A,,Clear,320,2013-01-18 18:15:00
1:35 PM,30.2,-7.6,19,30.41,10.0,NW,13.8,18.4,N/A,,Clear,310,2013-01-18 18:35:00
1:55 PM,30.2,-9.4,18,30.43,10.0,NW,11.5,19.6,N/A,,Clear,320,2013-01-18 18:55:00
2:15 PM,30.2,-9.4,18,30.43,10.0,NNW,16.1,20.7,N/A,,Clear,340,2013-01-18 19:15:00
2:35 PM,30.2,-9.4,18,30.43,10.0,WNW,9.2,-,N/A,,Clear,300,2013-01-18 19:35:00
2:55 PM,32.0,-9.4,17,30.43,10.0,West,11.5,-,N/A,,Clear,280,2013-01-18 19:55:00
3:15 PM,30.2,-9.4,18,30.44,10.0,West,8.1,-,N/A,,Clear,280,2013-01-18 20:15:00
3:35 PM,30.2,-11.2,16,30.44,10.0,NNW,9.2,-,N/A,,Clear,330,2013-01-18 20:35:00
3:55 PM,30.2,-9.4,18,30.45,10.0,WNW,8.1,-,N/A,,Clear,290,2013-01-18 20:55:00
4:15 PM,30.2,-9.4,18,30.45,10.0,NW,6.9,-,N/A,,Clear,310,2013-01-18 21:15:00
4:35 PM,30.2,-11.2,16,30.46,10.0,Calm,Calm,-,N/A,,Clear,0,2013-01-18 21:35:00
4:55 PM,28.4,-11.2,18,30.47,10.0,West,6.9,-,N/A,,Clear,280,2013-01-18 21:55:00
5:15 PM,28.4,-11.2,18,30.48,10.0,West,4.6,-,N/A,,Clear,280,2013-01-18 22:15:00
5:35 PM,28.4,-9.4,19,30.48,10.0,West,4.6,-,N/A,,Clear,280,2013-01-18 22:35:00
5:55 PM,28.4,-11.2,18,30.48,10.0,Calm,Calm,-,N/A,,Clear,0,2013-01-18 22:55:00
6:15 PM,26.6,-7.6,22,30.49,10.0,Calm,Calm,-,N/A,,Clear,0,2013-01-18 23:15:00
6:35 PM,26.6,-9.4,21,30.49,10.0,Calm,Calm,-,N/A,,Clear,0,2013-01-18 23:35:00
6:55 PM,26.6,-5.8,24,30.50,10.0,Calm,Calm,-,N/A,,Clear,0,2013-01-18 23:55:00
7:15 PM,26.6,-7.6,22,30.50,10.0,Calm,Calm,-,N/A,,Clear,0,2013-01-19 00:15:00
7:35 PM,26.6,-7.6,22,30.50,10.0,South,5.8,-,N/A,,Clear,190,2013-01-19 00:35:00
7:55 PM,26.6,-5.8,24,30.49,10.0,South,4.6,-,N/A,,Clear,180,2013-01-19 00:55:00
8:15 PM,26.6,-5.8,24,30.48,10.0,South,3.5,-,N/A,,Clear,180,2013-01-19 01:15:00
8:35 PM,26.6,-4.0,26,30.48,10.0,South,4.6,-,N/A,,Clear,180,2013-01-19 01:35:00
8:55 PM,26.6,-2.2,29,30.48,10.0,South,3.5,-,N/A,,Clear,180,2013-01-19 01:55:00
9:35 PM,24.8,-2.2,31,30.47,10.0,SSW,3.5,-,N/A,,Clear,200,2013-01-19 02:35:00
9:55 PM,26.6,-5.8,24,30.48,10.0,SSW,3.5,-,N/A,,Clear,210,2013-01-19 02:55:00
10:15 PM,26.6,-5.8,24,30.47,10.0,SW,4.6,-,N/A,,Clear,220,2013-01-19 03:15:00
10:35 PM,26.6,-4.0,26,30.46,10.0,SSW,4.6,-,N/A,,Clear,200,2013-01-19 03:35:00
10:55 PM,26.6,-4.0,26,30.45,10.0,SW,5.8,-,N/A,,Clear,220,2013-01-19 03:55:00
11:15 PM,26.6,-4.0,26,30.44,10.0,SSW,6.9,-,N/A,,Clear,210,2013-01-19 04:15:00
11:35 PM,26.6,-4.0,26,30.44,10.0,South,5.8,-,N/A,,Clear,190,2013-01-19 04:35:00
11:55 PM,26.6,-2.2,29,30.43,10.0,South,4.6,-,N/A,,Clear,180,2013-01-19 04:55:00